Location: Coed Ely
(51.5661°N, 3.4150°W)
Time: 19:10:13
(UTC+00:00)

Cosmos 1328 - Pass Details

Date: 28 January 2021
Orbit: 528 x 555 km, 82.5° (Epoch: 27 February)

Event Time Altitude Azimuth Distance (km) Brightness Sun altitude
Rises 18:33:08 0° 191° (SSW) 2,706 7.6 -15.0°
Reaches altitude 10° 18:35:18 10° 193° (SSW) 1,813 6.7 -15.3°
Maximum altitude 18:39:17 81° 279° (W) 557 3.8 -15.9°
Drops below altitude 10° 18:43:17 10° 9° (N) 1,813 6.3 -16.5°
Sets 18:45:27 0° 10° (N) 2,705 7.2 -16.9°
Enters shadow 18:45:29 - 10° (N) 2,720 7.2 -16.9°
